Regional Weather Roundup
Issued by NWS Sterling, VA

Home | Current Version | Previous Version | Text Only | Print | Product List | Glossary On
Versions: 1 2 3 4 5 6 7 8 9 10 11 12 13 14 15 16 17 18 19 20 21 22 23 24 25 26 27 28 29 30 31 32 33 34 35 36 37 38 39 40 41 42 43 44 45 46 47 48 49 50
000
ASUS41 KLWX 231410
RWRLWX

REGIONAL WEATHER ROUNDUP
NATIONAL WEATHER SERVICE BALTIMORE MD/WASHINGTON DC
1000 AM EDT TUE SEP 23 2014

Note: "FAIR" indicates few or no clouds below 12,000 feet
with no significant weather and/or obstructions to visibility.
 TC=TEMPERATURE CELSIUS

 * =Non NWS site. Station does not report precipitation (e.g. rain,
    snow, etc.), thunder, or fog.

DCZ001-MDZ009-015-VAZ040>042-051-053>054-231500-
WASHINGTON METRO

CITY           SKY/WX    TMP DP  RH WIND       PRES   REMARKS
WASHINGTON NAT MOSUNNY   62  43  49 NE6       30.36R
DULLES         MOSUNNY   59  43  55 N7        30.37R
ANDREWS AFB    MOSUNNY   59  44  57 NE7       30.35R
QUANTICO       MOSUNNY   60  45  57 NE9       30.37R
COLLEGE PARK*  MOSUNNY   61  45  55 CALM      30.35S
LEESBURG*      SUNNY     59  46  63 N7        30.38R
GAITHERSBURG*  SUNNY     57  45  62 NE6       30.39S

$$

MDZ006>007-011-014-231500-
BALTIMORE METRO

CITY           SKY/WX    TMP DP  RH WIND       PRES   REMARKS
BWI AIRPORT    MOSUNNY   61  42  49 VRB7      30.34S
MD SCIENCE CTR   N/A     60  42  51 MISG      30.35R
MARTIN STATE   MOSUNNY   61  46  59 NW8       30.37R
ANNAPOLIS      SUNNY     60  45  57 N7        30.35R
FORT MEADE*    SUNNY     59  45  58 NE5       30.37S

$$

MDZ012-015-019>023-231500-
MARYLAND EASTERN SHORE

CITY           SKY/WX    TMP DP  RH WIND       PRES   REMARKS
OCEAN CITY     PTSUNNY   60  47  61 NW7       30.32R
SALISBURY      PTSUNNY   60  45  57 CALM      30.33R
BAY BRIDGE AP*   N/A     59  43  55 NE6       30.35R
CAMBRIDGE*     SUNNY     59  41  51 NE9G16    30.33S
EASTON*        SUNNY     61  46  59 N6        30.37S

$$

MDZ017>025-231500-
SOUTHERN MARYLAND

CITY           SKY/WX    TMP DP  RH WIND       PRES   REMARKS
PATUXENT RIVER PTSUNNY   61  40  45 NE12      30.34R
ST INIGOES     MOSUNNY   60  40  47 NE9       30.33R
LEONARDTOWN*   MOSUNNY   59  41  51 NE3       30.35S

$$

MDZ003>005-231500-
NORTH CENTRAL MARYLAND

CITY           SKY/WX    TMP DP  RH WIND       PRES   REMARKS
FREDERICK*     SUNNY     61  46  59 VRB3      30.39R
HAGERSTOWN APT SUNNY     56  42  59 CALM      30.37R
WESTMINSTER*   SUNNY     55  45  67 N5        30.35S

$$

MDZ501>502-231500-
WESTERN MARYLAND

CITY           SKY/WX    TMP DP  RH WIND       PRES   REMARKS
OAKLAND*       SUNNY     50  37  62 E6        30.36R
CUMBERLAND*    SUNNY     57  45  62 S3        30.42R

$$

VAZ025>031-231500-
SHENANDOAH VALLEY

CITY           SKY/WX    TMP DP  RH WIND       PRES   REMARKS
WINCHESTER*    SUNNY     55  41  58 N3        30.37R
STAUNTON*      SUNNY     54  43  67 CALM      30.41R

$$

WVZ021-048>050-054>055-231500-
EASTERN WEST VIRGINIA PANHANDLE

CITY           SKY/WX    TMP DP  RH WIND       PRES   REMARKS
MARTINSBURG    SUNNY     57  41  55 CALM      30.37S
PETERSBURG*    SUNNY     49  43  79 CALM      30.40R

$$

VAZ036>039-050-231500-
CENTRAL FOOTHILLS

CITY           SKY/WX    TMP DP  RH WIND       PRES   REMARKS
CHARLOTTESVILL SUNNY     58  43  57 NE8       30.37R
ORANGE*        SUNNY     59  41  51 N6        30.39R

$$

VAZ055>057-231500-
NORTH AND CENTRAL PIEDMONT

CITY           SKY/WX    TMP DP  RH WIND       PRES   REMARKS
FREDERICKSBRG* SUNNY     60  45  57 N6        30.35S
STAFFORD*      MOSUNNY   60  45  57 N6        30.40S

$$

NCZ024-NYZ072-PAZ021-071-VAZ022-071-231500-
OTHER REGIONAL OBSERVATIONS

CITY           SKY/WX    TMP DP  RH WIND       PRES   REMARKS
NEW YORK CITY  SUNNY     57  41  55 CALM      30.35R
PHILADELPHIA   MOSUNNY   61  43  51 NE8       30.34R
PITTSBURGH     MOSUNNY   51  44  77 SE5       30.37S
ROANOKE        MOSUNNY   56  47  71 VRB3      30.39R
RICHMOND       PTSUNNY   61  45  55 NE7       30.35R
RALEIGH        CLOUDY    58  46  64 NE8       30.32S

$$

ANZ530>537-231500-
MARINE OBSERVATIONS

STATION/POSITION TIME  TEMP    WIND        PRES
                       AIR SEA DIR/SP/G
                 (UTC) (F)     (DEG/KT/KT) (MB)
THOMAS PT LIGHT  1400   58 71   30/ 10/ 13 1028.6R
BALT KEY BRIDGE  1400   58     350/  8/ 11 1027.4R
COVE POINT       1400   58      60/ 12/ 16 1027.3R
LEWISETTA        1400   60 71   40/  9/ 14 1026.9R
SOLOMONS ISLAND  1400      74                N/A
PINEY POINT      1400           50/  9/ 10   N/A

$$




USA.gov is the U.S. government's official web portal to all federal, state and local government web resources and services.